Flag for Malaysia Weather past 2 weeks in Kuching, Malaysia

Now
77 °F

Partly cloudy.


Feels Like: 78 °F
Forecast: 75 / 83 °F
Wind: 3 mph from Southwest

Location: Kuching Airport

Current Time: Mar 2, 2015 at 11:06:17 PM

Latest Report: Mar 2, 2015 at 10:30 PM


Visibility: N/A

Pressure: 29.92 "Hg

Humidity: 89%

Dew point: 73 °F

Location of KuchingLocation

Historic Weather in Kuching — Graph

°F

Kuching temperature yesterday

Maximum temperature yesterday: 88 °F (at 2:30 PM)
Minimum temperature yesterday: 77 °F (at 1:30 AM)
Average temperature yesterday: 81 °F

Past Weeks' High & Low Weather Summary

 TemperatureHumidityPressure
High90 °F (Feb 24, 4:00 PM)100% (Feb 19, 12:30 AM)29.95 "Hg (Feb 19, 12:30 AM)
Low72 °F (Feb 20, 4:00 AM)59% (Mar 1, 2:30 PM)29.74 "Hg (Feb 27, 4:00 PM)
Average79 °F85%29.86 "Hg
* Reported Feb 15 10:00 PM — Mar 2 10:00 PM, Kuching, Weather by CustomWeather, © 2015

Note: Actual official high and low records may vary slightly from our data, if they occured in-between our weather recording intervals... More about our weather records

Advertising

Kuching weather history for previous 24 hours

 ConditionsComfort  
Time TempWeatherWind HumidityBarometerVisibility
10:00 PM
Mon, Mar 2
77 °FPartly cloudy.1 mph89%29.89 "HgN/A
9:30 PM77 °FPartly cloudy.3 mph89%29.89 "HgN/A
9:00 PM77 °FPartly cloudy.3 mph83%29.86 "HgN/A
8:30 PM77 °FPartly cloudy.2 mph89%29.86 "HgN/A
8:00 PM79 °FPartly cloudy.3 mph84%29.86 "HgN/A
7:30 PM79 °FPartly cloudy.6 mph79%29.83 "HgN/A
7:00 PM79 °FPartly cloudy.6 mph84%29.83 "HgN/A
6:30 PM81 °FBroken clouds.7 mph74%29.83 "HgN/A
6:00 PM82 °FBroken clouds.9 mph70%29.80 "HgN/A
5:30 PM82 °FBroken clouds.10 mph70%29.80 "HgN/A
5:00 PM84 °FBroken clouds.10 mph66%29.80 "HgN/A
4:30 PM84 °FBroken clouds.7 mph70%29.77 "HgN/A
4:00 PM84 °FBroken clouds.5 mph70%29.80 "HgN/A
3:30 PM82 °FBroken clouds.3 mph74%29.80 "HgN/A
3:00 PM82 °FBroken clouds.3 mph79%29.83 "HgN/A
2:30 PM81 °FLight rain. Broken clouds.3 mph79%29.83 "HgN/A
2:00 PM79 °FLight rain. Broken clouds.5 mph84%29.86 "HgN/A
1:30 PM79 °FLight rain. Broken clouds.5 mph84%29.89 "HgN/A
1:00 PM79 °FLight rain. Broken clouds.3 mph84%29.92 "Hg4 mi
12:30 PM77 °FLight rain. Broken clouds.2 mph89%29.92 "Hg4 mi
12:00 PM77 °FLight rain. Broken clouds.2 mph89%29.92 "Hg4 mi
11:30 AM75 °FLight rain. Broken clouds.3 mph89%29.95 "Hg4 mi
11:00 AM75 °FRain. Partly sunny.3 mph94%29.95 "Hg2 mi
10:30 AM75 °FRain. Partly sunny.5 mph89%29.95 "Hg2 mi
10:00 AM75 °FRain. Broken clouds.3 mph94%29.95 "Hg2 mi
9:30 AM75 °FLight rain. Broken clouds.7 mph89%29.92 "Hg4 mi
9:00 AM75 °FLight rain. Broken clouds.6 mph94%29.92 "HgN/A
8:30 AM75 °FLight rain. Broken clouds.2 mph94%29.92 "HgN/A
8:00 AM75 °FBroken clouds.3 mph94%29.89 "HgN/A
7:30 AM75 °FBroken clouds.5 mph89%29.86 "HgN/A
7:00 AM75 °FBroken clouds.3 mph89%29.86 "HgN/A
6:30 AM75 °FPartly cloudy.3 mph89%29.86 "HgN/A
6:00 AM73 °FPartly cloudy.3 mph94%29.83 "HgN/A
5:30 AM75 °FPartly cloudy.3 mph89%29.83 "HgN/A
4:30 AM75 °FPartly cloudy.5 mph94%29.83 "HgN/A
4:00 AM75 °FLight rain. Partly cloudy.5 mph94%29.83 "Hg5 mi
3:30 AM75 °FLight rain. Partly cloudy.1 mph94%29.83 "Hg4 mi
3:00 AM75 °FLight rain. Partly cloudy.2 mph94%29.83 "Hg4 mi
2:30 AM75 °FRain. Partly cloudy.5 mph94%29.86 "Hg2 mi
2:00 AM77 °FRain. Partly cloudy.5 mph94%29.86 "Hg2 mi
1:30 AM79 °FLight rain. Partly cloudy.2 mph89%29.86 "Hg3 mi
1:00 AM79 °FPartly cloudy.2 mph89%29.89 "HgN/A
12:30 AM79 °FPartly cloudy.2 mph89%29.89 "HgN/A
12:00 AM79 °FPartly cloudy.1 mph89%29.89 "HgN/A
11:30 PM
Sun, Mar 1
79 °FPartly cloudy.3 mph89%29.89 "HgN/A
11:00 PM81 °FPartly cloudy.2 mph84%29.89 "HgN/A
Weather by CustomWeather, © 2015

See weather overviewHow to use our weather pages